Time,TemperatureF,DewpointF,PressureIn,WindDirection,WindDirectionDegrees,WindSpeedMPH,WindSpeedGustMPH,Humidity,HourlyPrecipIn,Conditions,Clouds,dailyrainin,SolarRadiationWatts/m^2,SoftwareType,DateUTC
2017-02-22 00:00:00,45.8,44.2,29.93,West,268,0.0,0.0,94,0.00,,,0.01,0,Wunderground v.1.15,2017-02-22 05:00:00,
2017-02-22 00:05:00,45.6,44.0,29.93,West,268,0.0,0.0,94,0.00,,,0.00,0,Wunderground v.1.15,2017-02-22 05:05:00,
2017-02-22 00:11:00,45.7,44.4,29.93,West,268,0.0,0.0,95,0.00,,,0.00,0,Wunderground v.1.15,2017-02-22 05:11:00,
2017-02-22 00:17:00,45.9,44.5,29.93,West,268,0.0,0.0,95,0.00,,,0.00,0,Wunderground v.1.15,2017-02-22 05:17:00,
2017-02-22 00:23:00,46.0,44.6,29.93,West,268,0.0,0.0,95,0.00,,,0.00,0,Wunderground v.1.15,2017-02-22 05:23:00,
2017-02-22 00:29:00,45.7,44.4,29.92,West,268,0.0,0.0,95,0.00,,,0.00,0,Wunderground v.1.15,2017-02-22 05:29:00,
2017-02-22 00:35:00,45.3,43.7,29.92,West,268,0.0,5.0,94,0.00,,,0.00,0,Wunderground v.1.15,2017-02-22 05:35:00,
2017-02-22 00:41:00,45.2,43.9,29.92,West,268,0.0,5.0,95,0.00,,,0.00,0,Wunderground v.1.15,2017-02-22 05:41:00,
2017-02-22 00:47:00,45.1,43.8,29.92,West,268,0.0,5.0,95,0.00,,,0.00,0,Wunderground v.1.15,2017-02-22 05:47:00,
2017-02-22 00:53:00,44.8,43.5,29.92,West,268,0.0,5.0,95,0.00,,,0.00,0,Wunderground v.1.15,2017-02-22 05:53:00,
2017-02-22 00:59:00,45.1,44.0,29.92,West,268,0.0,0.0,96,0.00,,,0.00,0,Wunderground v.1.15,2017-02-22 05:59:00,
2017-02-22 01:05:00,45.0,43.7,29.92,West,268,0.0,0.0,95,0.00,,,0.00,0,Wunderground v.1.15,2017-02-22 06:05:00,
2017-02-22 01:11:00,44.2,42.6,29.92,West,268,0.0,0.0,94,0.00,,,0.00,0,Wunderground v.1.15,2017-02-22 06:11:00,
2017-02-22 01:17:00,44.2,42.9,29.92,West,268,0.0,0.0,95,0.00,,,0.00,0,Wunderground v.1.15,2017-02-22 06:17:00,
2017-02-22 01:23:00,43.9,42.6,29.92,West,268,0.0,0.0,95,0.00,,,0.00,0,Wunderground v.1.15,2017-02-22 06:23:00,
2017-02-22 01:29:00,43.3,42.0,29.91,West,268,0.0,0.0,95,0.00,,,0.00,0,Wunderground v.1.15,2017-02-22 06:29:00,
2017-02-22 01:35:00,43.2,41.9,29.91,West,268,0.0,0.0,95,0.00,,,0.00,0,Wunderground v.1.15,2017-02-22 06:35:00,
2017-02-22 01:41:00,43.7,42.6,29.91,West,268,0.0,0.0,96,0.00,,,0.00,0,Wunderground v.1.15,2017-02-22 06:41:00,
2017-02-22 01:47:00,43.9,42.8,29.91,West,268,0.0,0.0,96,0.00,,,0.00,0,Wunderground v.1.15,2017-02-22 06:47:00,
2017-02-22 01:53:00,43.9,42.8,29.91,West,268,0.0,0.0,96,0.00,,,0.00,0,Wunderground v.1.15,2017-02-22 06:53:00,
2017-02-22 01:59:00,43.6,42.5,29.90,West,268,0.0,0.0,96,0.00,,,0.00,0,Wunderground v.1.15,2017-02-22 06:59:00,
2017-02-22 02:05:00,43.5,42.2,29.90,West,268,0.0,0.0,95,0.00,,,0.00,0,Wunderground v.1.15,2017-02-22 07:05:00,
2017-02-22 02:11:00,43.3,42.0,29.90,West,268,0.0,0.0,95,0.00,,,0.00,0,Wunderground v.1.15,2017-02-22 07:11:00,
2017-02-22 02:17:00,43.2,42.1,29.90,West,268,0.0,0.0,96,0.00,,,0.00,0,Wunderground v.1.15,2017-02-22 07:17:00,
2017-02-22 02:23:00,43.1,42.0,29.90,West,268,0.0,0.0,96,0.00,,,0.00,0,Wunderground v.1.15,2017-02-22 07:23:00,
2017-02-22 02:29:00,42.9,41.8,29.90,West,268,0.0,0.0,96,0.00,,,0.00,0,Wunderground v.1.15,2017-02-22 07:29:00,
2017-02-22 02:35:00,42.9,41.8,29.90,West,268,0.0,0.0,96,0.00,,,0.00,0,Wunderground v.1.15,2017-02-22 07:35:00,
2017-02-22 02:43:00,42.9,41.8,29.90,West,268,0.0,0.0,96,0.00,,,0.00,0,Wunderground v.1.15,2017-02-22 07:43:00,
2017-02-22 02:49:00,43.0,41.9,29.90,West,268,0.0,0.0,96,0.00,,,0.00,0,Wunderground v.1.15,2017-02-22 07:49:00,
2017-02-22 02:55:00,42.6,41.5,29.89,West,268,0.0,0.0,96,0.00,,,0.00,0,Wunderground v.1.15,2017-02-22 07:55:00,
2017-02-22 03:01:00,42.3,41.2,29.89,West,268,0.0,0.0,96,0.00,,,0.00,0,Wunderground v.1.15,2017-02-22 08:01:00,
2017-02-22 03:07:00,41.9,40.8,29.89,West,268,0.0,0.0,96,0.00,,,0.00,0,Wunderground v.1.15,2017-02-22 08:07:00,
2017-02-22 03:13:00,41.7,40.6,29.89,West,268,0.0,0.0,96,0.00,,,0.00,0,Wunderground v.1.15,2017-02-22 08:13:00,
2017-02-22 03:19:00,41.4,40.3,29.89,West,268,0.0,0.0,96,0.00,,,0.00,0,Wunderground v.1.15,2017-02-22 08:19:00,
2017-02-22 03:25:00,41.6,40.5,29.89,West,268,0.0,0.0,96,0.00,,,0.00,0,Wunderground v.1.15,2017-02-22 08:25:00,
2017-02-22 03:31:00,41.6,40.5,29.89,West,268,0.0,0.0,96,0.00,,,0.00,0,Wunderground v.1.15,2017-02-22 08:31:00,
2017-02-22 03:37:00,41.4,40.3,29.89,West,268,0.0,0.0,96,0.00,,,0.00,0,Wunderground v.1.15,2017-02-22 08:37:00,
2017-02-22 03:43:00,41.4,40.3,29.89,West,268,0.0,0.0,96,0.00,,,0.00,0,Wunderground v.1.15,2017-02-22 08:43:00,
2017-02-22 03:49:00,41.6,40.5,29.89,West,268,0.0,0.0,96,0.00,,,0.00,0,Wunderground v.1.15,2017-02-22 08:49:00,
2017-02-22 03:55:00,41.5,40.4,29.89,West,268,0.0,0.0,96,0.00,,,0.00,0,Wunderground v.1.15,2017-02-22 08:55:00,
2017-02-22 04:01:00,41.3,40.2,29.89,West,268,0.0,0.0,96,0.00,,,0.00,0,Wunderground v.1.15,2017-02-22 09:01:00,
2017-02-22 04:07:00,41.4,40.3,29.89,West,268,0.0,0.0,96,0.00,,,0.00,0,Wunderground v.1.15,2017-02-22 09:07:00,
2017-02-22 04:13:00,40.9,39.8,29.89,West,268,0.0,0.0,96,0.00,,,0.00,0,Wunderground v.1.15,2017-02-22 09:13:00,
2017-02-22 04:19:00,40.7,39.6,29.89,West,268,0.0,0.0,96,0.00,,,0.00,0,Wunderground v.1.15,2017-02-22 09:19:00,
2017-02-22 04:25:00,40.6,39.5,29.89,West,268,0.0,0.0,96,0.00,,,0.00,0,Wunderground v.1.15,2017-02-22 09:25:00,
2017-02-22 04:31:00,41.4,40.3,29.89,West,268,0.0,0.0,96,0.00,,,0.00,0,Wunderground v.1.15,2017-02-22 09:31:00,
2017-02-22 04:39:00,41.5,40.4,29.89,West,268,0.0,0.0,96,0.00,,,0.00,0,Wunderground v.1.15,2017-02-22 09:39:00,
2017-02-22 04:45:00,41.5,40.4,29.89,West,268,0.0,0.0,96,0.00,,,0.00,0,Wunderground v.1.15,2017-02-22 09:45:00,
2017-02-22 04:51:00,41.7,40.9,29.89,West,268,0.0,0.0,97,0.00,,,0.00,0,Wunderground v.1.15,2017-02-22 09:51:00,
2017-02-22 04:57:00,41.7,40.9,29.89,West,268,0.0,0.0,97,0.00,,,0.00,0,Wunderground v.1.15,2017-02-22 09:57:00,
2017-02-22 05:03:00,42.0,41.2,29.89,West,268,0.0,0.0,97,0.00,,,0.00,0,Wunderground v.1.15,2017-02-22 10:03:00,
2017-02-22 05:09:00,43.0,42.2,29.90,West,268,0.0,0.0,97,0.00,,,0.00,0,Wunderground v.1.15,2017-02-22 10:09:00,
2017-02-22 05:15:00,43.4,42.6,29.89,West,268,0.0,0.0,97,0.00,,,0.00,0,Wunderground v.1.15,2017-02-22 10:15:00,
2017-02-22 05:21:00,43.6,42.8,29.90,West,268,0.0,0.0,97,0.00,,,0.00,0,Wunderground v.1.15,2017-02-22 10:21:00,
2017-02-22 05:27:00,45.1,44.3,29.90,West,268,0.0,0.0,97,0.00,,,0.00,0,Wunderground v.1.15,2017-02-22 10:27:00,
2017-02-22 05:33:00,46.0,45.2,29.90,West,268,0.0,0.0,97,0.00,,,0.00,0,Wunderground v.1.15,2017-02-22 10:33:00,
2017-02-22 05:39:00,46.5,45.7,29.90,West,268,0.0,0.0,97,0.00,,,0.00,0,Wunderground v.1.15,2017-02-22 10:39:00,
2017-02-22 05:45:00,46.7,46.2,29.90,West,268,0.0,0.0,98,0.00,,,0.00,0,Wunderground v.1.15,2017-02-22 10:45:00,
2017-02-22 05:51:00,47.1,46.3,29.90,West,268,0.0,0.0,97,0.00,,,0.00,0,Wunderground v.1.15,2017-02-22 10:51:00,
2017-02-22 05:57:00,47.7,46.9,29.90,West,268,0.0,0.0,97,0.00,,,0.00,0,Wunderground v.1.15,2017-02-22 10:57:00,
2017-02-22 06:03:00,47.9,47.1,29.89,West,268,0.0,0.0,97,0.00,,,0.00,0,Wunderground v.1.15,2017-02-22 11:03:00,
2017-02-22 06:09:00,47.8,47.0,29.89,West,268,0.0,0.0,97,0.00,,,0.00,0,Wunderground v.1.15,2017-02-22 11:09:00,
2017-02-22 06:15:00,47.8,47.0,29.89,West,268,0.0,0.0,97,0.00,,,0.00,0,Wunderground v.1.15,2017-02-22 11:15:00,
2017-02-22 06:21:00,47.8,47.0,29.89,West,268,0.0,0.0,97,0.00,,,0.00,0,Wunderground v.1.15,2017-02-22 11:21:00,
2017-02-22 06:27:00,47.9,47.1,29.89,West,268,0.0,0.0,97,0.00,,,0.00,0,Wunderground v.1.15,2017-02-22 11:27:00,
2017-02-22 06:33:00,47.9,47.1,29.88,West,268,0.0,0.0,97,0.00,,,0.00,0,Wunderground v.1.15,2017-02-22 11:33:00,
2017-02-22 06:39:00,47.9,47.1,29.88,West,268,0.0,0.0,97,0.00,,,0.00,0,Wunderground v.1.15,2017-02-22 11:39:00,
2017-02-22 06:45:00,47.8,47.0,29.88,West,268,0.0,0.0,97,0.00,,,0.00,0,Wunderground v.1.15,2017-02-22 11:45:00,
2017-02-22 06:51:00,47.8,47.0,29.88,West,268,0.0,0.0,97,0.00,,,0.00,0,Wunderground v.1.15,2017-02-22 11:51:00,
2017-02-22 06:57:00,47.7,46.9,29.87,West,268,0.0,0.0,97,0.00,,,0.00,0,Wunderground v.1.15,2017-02-22 11:57:00,
2017-02-22 07:03:00,47.3,46.5,29.87,West,268,0.0,0.0,97,0.00,,,0.00,0,Wunderground v.1.15,2017-02-22 12:03:00,
2017-02-22 07:09:00,47.2,46.4,29.88,West,268,0.0,0.0,97,0.00,,,0.00,0,Wunderground v.1.15,2017-02-22 12:09:00,
2017-02-22 07:15:00,46.9,46.1,29.88,West,268,0.0,0.0,97,0.00,,,0.00,0,Wunderground v.1.15,2017-02-22 12:15:00,
2017-02-22 07:21:00,46.5,45.7,29.88,West,268,0.0,0.0,97,0.00,,,0.00,0,Wunderground v.1.15,2017-02-22 12:21:00,
2017-02-22 07:27:00,46.0,45.2,29.88,West,268,0.0,0.0,97,0.00,,,0.00,5,Wunderground v.1.15,2017-02-22 12:27:00,
2017-02-22 07:33:00,45.5,44.7,29.88,West,268,0.0,0.0,97,0.00,,,0.00,9,Wunderground v.1.15,2017-02-22 12:33:00,
2017-02-22 07:39:00,45.8,45.0,29.88,West,268,0.0,0.0,97,0.00,,,0.00,18,Wunderground v.1.15,2017-02-22 12:39:00,
2017-02-22 07:45:00,46.2,45.4,29.88,West,268,0.0,0.0,97,0.00,,,0.00,25,Wunderground v.1.15,2017-02-22 12:45:00,
2017-02-22 07:51:00,46.4,45.6,29.88,West,268,0.0,0.0,97,0.00,,,0.00,33,Wunderground v.1.15,2017-02-22 12:51:00,
2017-02-22 07:57:00,46.7,45.9,29.88,West,268,0.0,0.0,97,0.00,,,0.00,46,Wunderground v.1.15,2017-02-22 12:57:00,
2017-02-22 08:03:00,46.8,46.0,29.88,West,268,0.0,0.0,97,0.00,,,0.00,54,Wunderground v.1.15,2017-02-22 13:03:00,
2017-02-22 08:09:00,47.0,46.2,29.88,West,268,0.0,0.0,97,0.00,,,0.00,67,Wunderground v.1.15,2017-02-22 13:09:00,
2017-02-22 08:15:00,47.4,46.6,29.87,West,268,0.0,0.0,97,0.00,,,0.00,81,Wunderground v.1.15,2017-02-22 13:15:00,
2017-02-22 08:21:00,47.8,47.0,29.87,West,268,0.0,0.0,97,0.00,,,0.00,98,Wunderground v.1.15,2017-02-22 13:21:00,
2017-02-22 08:27:00,48.1,47.3,29.87,West,268,0.0,0.0,97,0.00,,,0.00,114,Wunderground v.1.15,2017-02-22 13:27:00,
2017-02-22 08:33:00,49.3,48.8,29.87,West,268,0.0,0.0,98,0.00,,,0.00,130,Wunderground v.1.15,2017-02-22 13:33:00,
2017-02-22 08:41:00,50.0,49.5,29.87,West,268,0.0,0.0,98,0.00,,,0.00,149,Wunderground v.1.15,2017-02-22 13:41:00,
2017-02-22 08:47:00,51.1,50.6,29.86,West,268,0.0,0.0,98,0.00,,,0.00,163,Wunderground v.1.15,2017-02-22 13:47:00,
2017-02-22 08:53:00,51.3,50.8,29.86,West,268,0.0,0.0,98,0.00,,,0.00,183,Wunderground v.1.15,2017-02-22 13:53:00,
2017-02-22 09:00:00,51.3,50.8,29.86,West,268,0.0,0.0,98,0.00,,,0.00,199,Wunderground v.1.15,2017-02-22 14:00:00,
2017-02-22 09:05:00,51.7,51.2,29.86,SSE,167,1.0,2.0,98,0.00,,,0.00,207,Wunderground v.1.15,2017-02-22 14:05:00,
2017-02-22 09:11:00,52.2,51.7,29.86,South,181,3.0,4.0,98,0.00,,,0.00,246,Wunderground v.1.15,2017-02-22 14:11:00,
2017-02-22 09:17:00,52.8,52.3,29.86,South,180,3.0,4.0,98,0.00,,,0.00,267,Wunderground v.1.15,2017-02-22 14:17:00,
2017-02-22 09:23:00,53.3,52.5,29.86,South,184,4.0,5.0,97,0.00,,,0.00,288,Wunderground v.1.15,2017-02-22 14:23:00,
2017-02-22 09:29:00,53.5,52.7,29.86,South,182,5.0,5.0,97,0.00,,,0.00,120,Wunderground v.1.15,2017-02-22 14:29:00,
2017-02-22 09:35:00,53.1,52.3,29.85,South,178,5.0,8.0,97,0.00,,,0.00,118,Wunderground v.1.15,2017-02-22 14:35:00,
2017-02-22 09:41:00,53.1,52.3,29.85,SW,219,4.0,5.0,97,0.00,,,0.00,153,Wunderground v.1.15,2017-02-22 14:41:00,
2017-02-22 09:47:00,53.3,52.5,29.85,South,188,3.0,5.0,97,0.00,,,0.00,158,Wunderground v.1.15,2017-02-22 14:47:00,
2017-02-22 09:53:00,53.5,52.4,29.85,SW,225,4.0,6.0,96,0.00,,,0.00,127,Wunderground v.1.15,2017-02-22 14:53:00,
2017-02-22 10:00:00,53.6,52.5,29.85,South,186,4.0,7.0,96,0.00,,,0.00,120,Wunderground v.1.15,2017-02-22 15:00:00,
2017-02-22 10:05:00,53.8,53.0,29.85,South,186,3.0,7.0,97,0.00,,,0.00,141,Wunderground v.1.15,2017-02-22 15:05:00,
2017-02-22 10:11:00,54.1,53.0,29.85,SW,216,3.0,3.0,96,0.00,,,0.00,195,Wunderground v.1.15,2017-02-22 15:11:00,
2017-02-22 10:17:00,54.3,53.2,29.85,SSW,211,3.0,7.0,96,0.00,,,0.00,120,Wunderground v.1.15,2017-02-22 15:17:00,
2017-02-22 10:23:00,54.5,53.4,29.85,SW,233,3.0,4.0,96,0.00,,,0.00,160,Wunderground v.1.15,2017-02-22 15:23:00,
2017-02-22 10:29:00,54.8,53.7,29.85,SSW,213,3.0,3.0,96,0.00,,,0.00,146,Wunderground v.1.15,2017-02-22 15:29:00,
2017-02-22 10:35:00,54.8,53.7,29.85,SSW,204,4.0,9.0,96,0.00,,,0.00,178,Wunderground v.1.15,2017-02-22 15:35:00,
2017-02-22 10:41:00,55.1,54.0,29.85,SSW,207,4.0,9.0,96,0.00,,,0.00,197,Wunderground v.1.15,2017-02-22 15:41:00,
2017-02-22 10:47:00,55.5,54.4,29.85,SSW,193,4.0,9.0,96,0.00,,,0.00,251,Wunderground v.1.15,2017-02-22 15:47:00,
2017-02-22 10:53:00,55.8,54.7,29.85,SSW,196,4.0,9.0,96,0.00,,,0.00,183,Wunderground v.1.15,2017-02-22 15:53:00,
2017-02-22 11:00:00,55.9,54.5,29.84,South,182,5.0,5.0,95,0.00,,,0.00,186,Wunderground v.1.15,2017-02-22 16:00:00,
2017-02-22 11:05:00,55.9,54.5,29.84,SSW,196,5.0,5.0,95,0.00,,,0.00,195,Wunderground v.1.15,2017-02-22 16:05:00,
2017-02-22 11:11:00,56.0,54.6,29.84,South,184,4.0,5.0,95,0.00,,,0.00,176,Wunderground v.1.15,2017-02-22 16:11:00,
2017-02-22 11:17:00,56.2,54.5,29.84,SSW,196,4.0,5.0,94,0.00,,,0.00,125,Wunderground v.1.15,2017-02-22 16:17:00,
2017-02-22 11:23:00,56.5,54.8,29.84,SSW,213,2.0,3.0,94,0.00,,,0.00,135,Wunderground v.1.15,2017-02-22 16:23:00,
2017-02-22 11:29:00,56.6,54.9,29.84,SSW,213,1.0,1.0,94,0.00,,,0.00,127,Wunderground v.1.15,2017-02-22 16:29:00,
2017-02-22 11:35:00,56.7,55.0,29.84,SSW,211,0.0,9.0,94,0.00,,,0.00,148,Wunderground v.1.15,2017-02-22 16:35:00,
2017-02-22 11:41:00,56.9,55.2,29.84,SSW,211,1.0,9.0,94,0.00,,,0.00,141,Wunderground v.1.15,2017-02-22 16:41:00,
2017-02-22 11:47:00,57.2,55.2,29.84,SSW,211,1.0,9.0,93,0.00,,,0.00,137,Wunderground v.1.15,2017-02-22 16:47:00,
2017-02-22 11:53:00,57.2,55.2,29.84,SSW,211,2.0,9.0,93,0.00,,,0.00,121,Wunderground v.1.15,2017-02-22 16:53:00,
2017-02-22 12:00:00,57.3,55.3,29.84,SSW,211,2.0,2.0,93,0.00,,,0.00,125,Wunderground v.1.15,2017-02-22 17:00:00,
2017-02-22 12:05:00,57.5,55.5,29.83,SSW,200,2.0,5.0,93,0.00,,,0.00,139,Wunderground v.1.15,2017-02-22 17:05:00,
2017-02-22 12:11:00,57.6,55.3,29.83,SSW,200,3.0,5.0,92,0.00,,,0.00,144,Wunderground v.1.15,2017-02-22 17:11:00,
2017-02-22 12:17:00,57.7,55.4,29.83,SSW,198,4.0,5.0,92,0.00,,,0.00,146,Wunderground v.1.15,2017-02-22 17:17:00,
2017-02-22 12:23:00,57.8,55.5,29.83,South,190,4.0,5.0,92,0.00,,,0.00,162,Wunderground v.1.15,2017-02-22 17:23:00,
2017-02-22 12:29:00,57.9,55.3,29.83,South,184,4.0,4.0,91,0.00,,,0.00,188,Wunderground v.1.15,2017-02-22 17:29:00,
2017-02-22 12:35:00,58.2,55.6,29.82,South,184,3.0,9.0,91,0.00,,,0.00,186,Wunderground v.1.15,2017-02-22 17:35:00,
2017-02-22 12:41:00,58.5,55.9,29.82,SSW,198,2.0,5.0,91,0.00,,,0.00,167,Wunderground v.1.15,2017-02-22 17:41:00,
2017-02-22 12:47:00,58.6,55.7,29.81,SSW,195,2.0,9.0,90,0.00,,,0.00,160,Wunderground v.1.15,2017-02-22 17:47:00,
2017-02-22 12:53:00,58.8,55.6,29.81,SSW,193,3.0,9.0,89,0.00,,,0.00,195,Wunderground v.1.15,2017-02-22 17:53:00,
2017-02-22 12:59:00,58.9,55.7,29.81,SSW,200,4.0,7.0,89,0.00,,,0.00,202,Wunderground v.1.15,2017-02-22 17:59:00,
2017-02-22 13:05:00,59.3,55.7,29.80,SSW,195,5.0,8.0,88,0.00,,,0.00,260,Wunderground v.1.15,2017-02-22 18:05:00,
2017-02-22 13:11:00,59.6,56.0,29.80,SW,229,6.0,7.0,88,0.00,,,0.00,236,Wunderground v.1.15,2017-02-22 18:11:00,
2017-02-22 13:17:00,59.7,55.8,29.80,SSW,204,6.0,7.0,87,0.00,,,0.00,220,Wunderground v.1.15,2017-02-22 18:17:00,
2017-02-22 13:23:00,60.0,56.1,29.80,South,189,5.0,7.0,87,0.00,,,0.00,214,Wunderground v.1.15,2017-02-22 18:23:00,
2017-02-22 13:29:00,60.1,55.9,29.80,SW,220,6.0,6.0,86,0.00,,,0.00,225,Wunderground v.1.15,2017-02-22 18:29:00,
2017-02-22 13:35:00,60.5,56.3,29.80,SSW,207,6.0,10.0,86,0.00,,,0.00,234,Wunderground v.1.15,2017-02-22 18:35:00,
2017-02-22 13:41:00,60.6,56.1,29.79,SW,218,7.0,7.0,85,0.00,,,0.00,246,Wunderground v.1.15,2017-02-22 18:41:00,
2017-02-22 13:47:00,60.8,55.9,29.79,SSW,201,6.0,9.0,84,0.00,,,0.00,206,Wunderground v.1.15,2017-02-22 18:47:00,
2017-02-22 13:59:00,60.9,55.7,29.79,SSW,207,8.0,8.0,83,0.00,,,0.00,144,Wunderground v.1.15,2017-02-22 18:59:00,
2017-02-22 14:05:00,60.9,55.7,29.78,SW,224,6.0,8.0,83,0.00,,,0.00,206,Wunderground v.1.15,2017-02-22 19:05:00,
2017-02-22 14:11:00,61.1,55.6,29.78,WSW,241,5.0,7.0,82,0.00,,,0.00,199,Wunderground v.1.15,2017-02-22 19:11:00,
2017-02-22 14:17:00,61.3,55.8,29.77,SSW,194,5.0,9.0,82,0.00,,,0.00,165,Wunderground v.1.15,2017-02-22 19:17:00,
2017-02-22 14:23:00,61.1,55.6,29.77,SW,225,8.0,8.0,82,0.00,,,0.00,167,Wunderground v.1.15,2017-02-22 19:23:00,
2017-02-22 14:29:00,61.0,55.5,29.77,SSW,194,8.0,8.0,82,0.00,,,0.00,183,Wunderground v.1.15,2017-02-22 19:29:00,
2017-02-22 14:35:00,61.1,55.6,29.77,SSW,205,7.0,13.0,82,0.00,,,0.00,188,Wunderground v.1.15,2017-02-22 19:35:00,
2017-02-22 14:41:00,61.2,55.3,29.77,South,176,6.0,14.0,81,0.00,,,0.00,165,Wunderground v.1.15,2017-02-22 19:41:00,
2017-02-22 14:47:00,61.1,55.6,29.77,SSW,207,8.0,14.0,82,0.00,,,0.00,153,Wunderground v.1.15,2017-02-22 19:47:00,
2017-02-22 14:53:00,61.2,55.7,29.77,SSW,194,7.0,13.0,82,0.00,,,0.00,142,Wunderground v.1.15,2017-02-22 19:53:00,
2017-02-22 14:59:00,61.3,55.4,29.77,SSW,200,5.0,5.0,81,0.00,,,0.00,151,Wunderground v.1.15,2017-02-22 19:59:00,
2017-02-22 15:05:00,61.4,55.5,29.76,SSW,200,5.0,10.0,81,0.00,,,0.00,134,Wunderground v.1.15,2017-02-22 20:05:00,
2017-02-22 15:11:00,61.5,55.6,29.77,SW,225,6.0,10.0,81,0.00,,,0.00,156,Wunderground v.1.15,2017-02-22 20:11:00,
2017-02-22 15:17:00,61.6,55.7,29.76,SW,226,6.0,10.0,81,0.00,,,0.00,120,Wunderground v.1.15,2017-02-22 20:17:00,
2017-02-22 15:23:00,61.8,55.9,29.76,SW,219,6.0,6.0,81,0.00,,,0.00,125,Wunderground v.1.15,2017-02-22 20:23:00,
2017-02-22 15:29:00,61.9,55.7,29.76,SSW,196,6.0,9.0,80,0.00,,,0.00,155,Wunderground v.1.15,2017-02-22 20:29:00,
2017-02-22 15:35:00,62.0,55.8,29.76,SSW,200,7.0,17.0,80,0.00,,,0.00,128,Wunderground v.1.15,2017-02-22 20:35:00,
2017-02-22 15:41:00,62.0,55.8,29.76,SW,215,7.0,17.0,80,0.00,,,0.00,123,Wunderground v.1.15,2017-02-22 20:41:00,
2017-02-22 15:47:00,62.1,55.9,29.76,SW,218,6.0,17.0,80,0.00,,,0.00,116,Wunderground v.1.15,2017-02-22 20:47:00,
2017-02-22 15:53:00,62.0,55.4,29.76,SW,221,6.0,17.0,79,0.00,,,0.00,105,Wunderground v.1.15,2017-02-22 20:53:00,
2017-02-22 15:59:00,62.1,55.9,29.76,South,190,6.0,6.0,80,0.00,,,0.00,105,Wunderground v.1.15,2017-02-22 20:59:00,
2017-02-22 16:05:00,62.1,55.5,29.76,SSW,211,5.0,7.0,79,0.00,,,0.00,76,Wunderground v.1.15,2017-02-22 21:05:00,
2017-02-22 16:11:00,62.2,55.6,29.76,South,186,5.0,7.0,79,0.00,,,0.00,77,Wunderground v.1.15,2017-02-22 21:11:00,
2017-02-22 16:17:00,62.2,55.6,29.75,SSW,205,5.0,8.0,79,0.00,,,0.00,84,Wunderground v.1.15,2017-02-22 21:17:00,
2017-02-22 16:23:00,62.2,55.6,29.75,SW,219,5.0,5.0,79,0.00,,,0.00,98,Wunderground v.1.15,2017-02-22 21:23:00,
2017-02-22 16:29:00,62.3,55.7,29.75,SSW,209,3.0,3.0,79,0.00,,,0.00,79,Wunderground v.1.15,2017-02-22 21:29:00,
2017-02-22 16:35:00,62.5,55.9,29.75,WSW,238,2.0,13.0,79,0.00,,,0.00,76,Wunderground v.1.15,2017-02-22 21:35:00,
2017-02-22 16:41:00,62.5,55.9,29.75,SSW,207,4.0,13.0,79,0.00,,,0.00,62,Wunderground v.1.15,2017-02-22 21:41:00,
2017-02-22 16:47:00,62.5,55.9,29.75,SW,228,4.0,13.0,79,0.00,,,0.00,44,Wunderground v.1.15,2017-02-22 21:47:00,
2017-02-22 16:53:00,62.5,55.9,29.75,SW,221,3.0,13.0,79,0.00,,,0.00,44,Wunderground v.1.15,2017-02-22 21:53:00,
2017-02-22 16:59:00,62.5,55.9,29.75,WSW,237,3.0,3.0,79,0.00,,,0.00,47,Wunderground v.1.15,2017-02-22 21:59:00,
2017-02-22 17:05:00,62.4,55.8,29.75,SW,222,4.0,9.0,79,0.00,,,0.00,51,Wunderground v.1.15,2017-02-22 22:05:00,
2017-02-22 17:11:00,62.4,55.8,29.75,South,183,3.0,3.0,79,0.00,,,0.00,39,Wunderground v.1.15,2017-02-22 22:11:00,
2017-02-22 17:19:00,62.3,56.0,29.74,SSW,206,1.0,4.0,80,0.00,,,0.00,30,Wunderground v.1.15,2017-02-22 22:19:00,
2017-02-22 17:25:00,62.3,56.0,29.74,SSW,207,0.0,4.0,80,0.00,,,0.00,26,Wunderground v.1.15,2017-02-22 22:25:00,
2017-02-22 17:31:00,62.3,56.0,29.74,South,184,1.0,12.0,80,0.00,,,0.00,25,Wunderground v.1.15,2017-02-22 22:31:00,
2017-02-22 17:37:00,62.2,56.0,29.74,South,179,3.0,12.0,80,0.00,,,0.00,18,Wunderground v.1.15,2017-02-22 22:37:00,
2017-02-22 17:43:00,62.2,56.0,29.74,South,179,2.0,12.0,80,0.00,,,0.00,16,Wunderground v.1.15,2017-02-22 22:43:00,
2017-02-22 17:49:00,62.1,55.9,29.74,South,179,0.0,12.0,80,0.00,,,0.00,16,Wunderground v.1.15,2017-02-22 22:49:00,
2017-02-22 17:55:00,62.0,55.8,29.74,SW,214,1.0,12.0,80,0.00,,,0.00,5,Wunderground v.1.15,2017-02-22 22:55:00,
2017-02-22 18:01:00,62.0,55.8,29.75,SW,217,2.0,4.0,80,0.00,,,0.00,5,Wunderground v.1.15,2017-02-22 23:01:00,
2017-02-22 18:07:00,62.0,55.8,29.74,SW,217,1.0,4.0,80,0.00,,,0.00,0,Wunderground v.1.15,2017-02-22 23:07:00,
2017-02-22 18:13:00,61.8,56.2,29.74,South,184,3.0,5.0,82,0.00,,,0.00,0,Wunderground v.1.15,2017-02-22 23:13:00,
2017-02-22 18:19:00,61.7,56.5,29.74,South,186,5.0,6.0,83,0.00,,,0.00,0,Wunderground v.1.15,2017-02-22 23:19:00,
2017-02-22 18:25:00,61.6,56.4,29.74,SSW,196,5.0,6.0,83,0.00,,,0.00,0,Wunderground v.1.15,2017-02-22 23:25:00,
2017-02-22 18:31:00,61.5,56.3,29.74,SSW,202,4.0,9.0,83,0.00,,,0.00,0,Wunderground v.1.15,2017-02-22 23:31:00,
2017-02-22 18:37:00,61.3,56.4,29.74,South,191,3.0,9.0,84,0.00,,,0.00,0,Wunderground v.1.15,2017-02-22 23:37:00,
2017-02-22 18:43:00,61.2,56.3,29.74,South,174,5.0,9.0,84,0.00,,,0.00,0,Wunderground v.1.15,2017-02-22 23:43:00,
2017-02-22 18:49:00,61.0,55.8,29.74,South,184,6.0,6.0,83,0.00,,,0.00,0,Wunderground v.1.15,2017-02-22 23:49:00,